Tracking 28790 objects as of 19-Apr-2024
HD Live streaming from Space Station
objects crossing your sky now

SL-14 DEB

Track SL-14 DEB now!
10-day predictions


NORAD ID: 26022
Int'l Code: 1991-068AH
Perigee: 1,361.0 km
Apogee: 1,482.7 km
Inclination: 82.5 °
Period: 114.1 minutes
Semi major axis: 7792 km
RCS: 0.0368 m2 (small)
Launch date: September 28, 1991
Source: Commonwealth of Independent States (former USSR) (CIS)
Launch site: PLESETSK MISSILE AND SPACE COMPLEX (PKMTR)

Note: This is SATELLITE DEBRIS
Your satellite tracking list
Your tracking list is empty




NASA's NSSDC Master Catalog

Two Line Element Set (TLE):
1 26022U 91068AH  24109.66665872  .00000371  00000-0  19955-2 0  9990
2 26022  82.4597  61.2023 0078084 137.9459 277.1401 12.61997105498394
Source of the keplerian elements: AFSPC